Flag for Canada Weather past 2 weeks in Morden, Manitoba, Canada

Now
42 °F

Quite cool.


Feels Like: 34 °F
Forecast: 34 / 48 °F
Wind: 20 mph from Southeast

Location: Morden CDA CS


UV Index: 0 (Low)

Visibility: N/A


Pressure: 29.87 "Hg

Humidity: 88%

Dew point: 39 °F

Location of MordenLocation

Historic Weather in Morden

°F

Morden temperature yesterday

Maximum temperature yesterday: 60 °F (at 4:00 PM)
Minimum temperature yesterday: 28 °F (at 6:00 AM)
Average temperature yesterday: 45 °F

Past Weeks' High & Low Weather Summary

 TemperatureHumidityPressure
High67 °F (Apr 9, 3:00 PM)99% (Apr 12, 6:00 PM)30.46 "Hg (Apr 12, 6:00 PM)
Low9 °F (Apr 15, 4:00 AM)26% (Apr 17, 2:00 PM)29.33 "Hg (Apr 9, 3:00 PM)
Average36 °F65%30.03 "Hg
* Reported Apr 8 5:00 PM — Apr 23 5:00 PM, Morden, Weather by CustomWeather, © 2014

Note: Actual official high and low records may vary slightly from our data, if they occured in-between our weather recording intervals... More about our weather records

Advertising

Historic Weather Conditions — Data for Previous 24 hours

 ConditionsComfort  
Time TempWeatherWind HumidityBarometerVisibility
5:00 PM
Apr 23
42 °FQuite cool.20 mph88%29.87 "HgN/A
4:00 PM44 °FQuite cool.18 mph82%29.87 "HgN/A
3:00 PM44 °FQuite cool.16 mph88%29.87 "HgN/A
2:00 PM44 °FQuite cool.15 mph89%29.88 "HgN/A
1:00 PM46 °FCool.13 mph64%29.89 "HgN/A
12:00 PM48 °FCool.17 mph53%29.87 "HgN/A
11:00 AM48 °FCool.17 mph52%29.86 "HgN/A
10:00 AM45 °FCool.16 mph56%29.88 "HgN/A
9:00 AM40 °FChilly.8 mph67%29.91 "HgN/A
8:00 AM36 °FChilly.9 mph73%29.93 "HgN/A
7:00 AM35 °FChilly.7 mph77%29.93 "HgN/A
6:00 AM32 °FChilly.6 mph83%29.94 "HgN/A
5:00 AM34 °FChilly.6 mph77%29.95 "HgN/A
4:00 AM35 °FChilly.7 mph79%29.95 "HgN/A
3:00 AM37 °FChilly.6 mph76%29.97 "HgN/A
2:00 AM36 °FChilly.7 mph75%29.98 "HgN/A
1:00 AM40 °FChilly.5 mph72%29.99 "HgN/A
12:00 AM41 °FQuite cool.6 mph68%30.00 "HgN/A
11:00 PM
Apr 22
45 °FQuite cool.8 mph67%30.00 "HgN/A
10:00 PM46 °FCool.5 mph61%29.99 "HgN/A
9:00 PM49 °FCool.8 mph57%29.98 "HgN/A
8:00 PM54 °FCool.12 mph45%29.98 "HgN/A
7:00 PM58 °FRefreshingly cool.13 mph39%30.00 "HgN/A
6:00 PM60 °FRefreshingly cool.14 mph36%29.99 "HgN/A
Weather by CustomWeather, © 2014

See weather overview